Mount Sterling, KY

3:10 AM EDT on August 20, 2017 (GMT -0400)
Mount Sterling-Montgomery County

Weather History for KIOB - February, 2013

Change the Weather History Date:

Friday, February 22, 2013

  Actual Average Record
Temperature  
Mean Temperature 46 °F -  
Max Temperature 59 °F 53 °F 64 °F (2017)
Min Temperature 32 °F 29 °F 30 °F (2015)
Degree Days  
Heating Degree Days 20    
Moisture  
Dew Point 39 °F    
Average Humidity 84    
Maximum Humidity 100    
Minimum Humidity 55    
Precipitation  
Precipitation 0.00 in - - ()
Sea Level Pressure  
Sea Level Pressure 29.96 in    
Wind  
Wind Speed 7 mph (SSW)    
Max Wind Speed 25 mph    
Max Gust Speed 34 mph    
Visibility 9 miles    
Events Rain , Snow    
Averages and records for this station are not official NWS values.
T = Trace of Precipitation, MM = Missing Value Source: NWS Daily Summary

Daily Weather History Graph

Daily Weather History Graph

Search for Another Location

Airport or City:

Trip Planner

Search our weather history database for the weather conditions in past years. The results will help you decide how hot, cold, wet, or windy it might be!

Date:

Astronomy

Feb. 22, 2013 Rise Set
Actual Time 7:16 AM EST 6:22 PM EST
Civil Twilight 6:50 AM EST 6:49 PM EST
Nautical Twilight 6:19 AM EST 7:19 PM EST
Astronomical Twilight 5:49 AM EST 7:50 PM EST
Moon 3:34 PM EST (2/22) 4:59 AM EST (2/22)
Length of Visible Light 11h 58m
Length of Day
11h 05m
Waxing Gibbous, 90% of the Moon is Illuminated
Feb 22
Waxing Gibbous
Feb 25
Full
Mar 4
Last Quarter
Mar 11
New
Mar 19
First Quarter

Hourly Weather History & Observations

Time (EST) Temp. Windchill Dew Point Humidity Pressure Visibility Wind Dir Wind Speed Gust Speed Precip Events Conditions
12:15 AM 32.0 °F 25.6 °F 28.4 °F 87% 30.00 in 5.0 mi SE 6.9 mph 19.6 mph N/A   Overcast
12:35 AM 32.0 °F 27.5 °F 30.2 °F 93% 30.03 in 10.0 mi SE 4.6 mph - N/A   Overcast
12:55 AM 32.0 °F 27.5 °F 30.2 °F 93% 30.03 in 5.0 mi ESE 4.6 mph - N/A   Overcast
1:15 AM 32.0 °F 25.6 °F 30.2 °F 93% 30.03 in 5.0 mi SE 6.9 mph - N/A   Overcast
1:35 AM 32.0 °F 26.4 °F 32.0 °F 100% 30.03 in 3.0 mi ESE 5.8 mph - N/A   Overcast
1:55 AM 32.0 °F 27.5 °F 32.0 °F 100% 30.01 in 4.0 mi ESE 4.6 mph - N/A Rain Light Rain
2:15 AM 32.0 °F 26.4 °F 32.0 °F 100% 29.99 in 4.0 mi ESE 5.8 mph - N/A   Overcast
2:35 AM 32.0 °F 27.5 °F 32.0 °F 100% 29.98 in 7.0 mi East 4.6 mph - N/A   Overcast
2:55 AM 32.0 °F 27.5 °F 32.0 °F 100% 29.97 in 10.0 mi ESE 4.6 mph - N/A   Overcast
3:15 AM 32.0 °F 27.5 °F 32.0 °F 100% 29.96 in 10.0 mi East 4.6 mph - N/A   Overcast
3:35 AM 32.0 °F 27.5 °F 32.0 °F 100% 29.95 in 4.0 mi ESE 4.6 mph - N/A   Overcast
3:55 AM 32.0 °F 27.5 °F 32.0 °F 100% 29.93 in 5.0 mi SE 4.6 mph - N/A Snow Light Snow
4:15 AM 32.0 °F 26.4 °F 32.0 °F 100% 29.91 in 5.0 mi SE 5.8 mph - N/A   Overcast
4:35 AM 32.0 °F 28.7 °F 32.0 °F 100% 29.91 in 10.0 mi SE 3.5 mph - N/A   Overcast
4:55 AM 32.0 °F 28.7 °F 32.0 °F 100% 29.92 in 7.0 mi SE 3.5 mph - N/A   Overcast
5:15 AM 32.0 °F 28.7 °F 32.0 °F 100% 29.91 in 7.0 mi SE 3.5 mph - N/A   Overcast
5:35 AM 32.0 °F 28.7 °F 32.0 °F 100% 29.92 in 7.0 mi SSE 3.5 mph - N/A   Overcast
5:55 AM 33.8 °F 30.8 °F 32.0 °F 93% 29.92 in 7.0 mi SE 3.5 mph - N/A   Drizzle
6:15 AM 33.8 °F 30.8 °F 32.0 °F 93% 29.92 in 10.0 mi SSE 3.5 mph - N/A   Overcast
6:35 AM 33.8 °F 30.8 °F 33.8 °F 100% 29.92 in 7.0 mi SSE 3.5 mph - N/A   Overcast
6:55 AM 33.8 °F 30.8 °F 33.8 °F 100% 29.93 in 10.0 mi SSE 3.5 mph - N/A   Overcast
7:15 AM 33.8 °F 29.6 °F 33.8 °F 100% 29.93 in 10.0 mi SSE 4.6 mph - N/A   Overcast
7:35 AM 33.8 °F 30.8 °F 33.8 °F 100% 29.93 in 10.0 mi South 3.5 mph - N/A   Overcast
7:55 AM 33.8 °F 28.6 °F 33.8 °F 100% 29.94 in 10.0 mi South 5.8 mph - N/A   Overcast
8:35 AM 37.4 °F 32.1 °F 37.4 °F 100% 29.94 in 10.0 mi SSW 6.9 mph - N/A   Overcast
8:55 AM 39.2 °F 35.0 °F 37.4 °F 93% 29.95 in 10.0 mi SW 5.8 mph - N/A   Overcast
9:15 AM 41.0 °F 36.4 °F 41.0 °F 100% 29.95 in 10.0 mi SW 6.9 mph - N/A   Overcast
9:35 AM 42.8 °F 38.0 °F 41.0 °F 93% 29.95 in 10.0 mi SW 8.1 mph - N/A   Overcast
9:55 AM 44.6 °F 40.2 °F 42.8 °F 93% 29.95 in 10.0 mi SW 8.1 mph - N/A   Overcast
10:15 AM 44.6 °F 40.2 °F 42.8 °F 93% 29.96 in 10.0 mi SW 8.1 mph - N/A   Overcast
10:35 AM 44.6 °F 40.2 °F 44.6 °F 100% 29.95 in 10.0 mi SW 8.1 mph - N/A   Overcast
10:55 AM 46.4 °F 41.5 °F 44.6 °F 93% 29.96 in 10.0 mi WSW 10.4 mph - N/A   Overcast
11:15 AM 50.0 °F - 46.4 °F 87% 29.96 in 10.0 mi SW 12.7 mph 18.4 mph N/A   Overcast
11:35 AM 51.8 °F - 46.4 °F 82% 29.96 in 10.0 mi WSW 16.1 mph 23.0 mph N/A   Overcast
11:55 AM 51.8 °F - 46.4 °F 82% 29.96 in 10.0 mi WSW 12.7 mph 21.9 mph N/A   Mostly Cloudy
12:15 PM 53.6 °F - 46.4 °F 77% 29.96 in 10.0 mi WSW 12.7 mph 21.9 mph N/A   Overcast
12:35 PM 55.4 °F - 44.6 °F 67% 29.95 in 10.0 mi WSW 17.3 mph 27.6 mph N/A   Mostly Cloudy
12:55 PM 55.4 °F - 44.6 °F 67% 29.95 in 10.0 mi WSW 23.0 mph 33.4 mph N/A   Mostly Cloudy
1:15 PM 55.4 °F - 44.6 °F 67% 29.95 in 10.0 mi WSW 25.3 mph 32.2 mph N/A   Overcast
1:35 PM 55.4 °F - 44.6 °F 67% 29.94 in 10.0 mi WSW 23.0 mph 34.5 mph N/A   Mostly Cloudy
1:55 PM 55.4 °F - 44.6 °F 67% 29.94 in 10.0 mi WSW 18.4 mph 28.8 mph N/A   Mostly Cloudy
2:15 PM 57.2 °F - 44.6 °F 63% 29.93 in 10.0 mi WSW 24.2 mph 34.5 mph N/A   Mostly Cloudy
2:35 PM 59.0 °F - 44.6 °F 59% 29.93 in 10.0 mi WSW 21.9 mph 28.8 mph N/A   Scattered Clouds
2:55 PM 55.4 °F - 44.6 °F 67% 29.94 in 10.0 mi SW 17.3 mph 27.6 mph N/A   Mostly Cloudy
3:15 PM 57.2 °F - 42.8 °F 59% 29.94 in 10.0 mi WSW 16.1 mph 26.5 mph N/A   Mostly Cloudy
3:35 PM 57.2 °F - 42.8 °F 59% 29.93 in 10.0 mi WSW 19.6 mph 26.5 mph N/A   Mostly Cloudy
3:55 PM 59.0 °F - 42.8 °F 55% 29.93 in 10.0 mi West 18.4 mph 25.3 mph N/A   Scattered Clouds
4:15 PM 57.2 °F - 42.8 °F 59% 29.93 in 10.0 mi WSW 13.8 mph 21.9 mph N/A   Mostly Cloudy
4:35 PM 59.0 °F - 42.8 °F 55% 29.93 in 10.0 mi SW 12.7 mph 19.6 mph N/A   Mostly Cloudy
4:55 PM 59.0 °F - 42.8 °F 55% 29.93 in 10.0 mi WSW 10.4 mph 23.0 mph N/A   Scattered Clouds
5:15 PM 57.2 °F - 42.8 °F 59% 29.92 in 10.0 mi WSW 16.1 mph 19.6 mph N/A   Clear
5:35 PM 55.4 °F - 41.0 °F 58% 29.93 in 10.0 mi WSW 12.7 mph 19.6 mph N/A   Clear
5:55 PM 55.4 °F - 42.8 °F 63% 29.93 in 10.0 mi WSW 8.1 mph - N/A   Clear
6:15 PM 53.6 °F - 42.8 °F 67% 29.93 in 10.0 mi WSW 8.1 mph - N/A   Clear
6:35 PM 53.6 °F - 42.8 °F 67% 29.95 in 10.0 mi WSW 5.8 mph - N/A   Scattered Clouds
6:55 PM 51.8 °F - 42.8 °F 71% 29.95 in 10.0 mi NNW 4.6 mph - N/A   Mostly Cloudy
7:15 PM 51.8 °F - 42.8 °F 71% 29.96 in 10.0 mi NNW 5.8 mph - N/A   Scattered Clouds
7:35 PM 50.0 °F - 42.8 °F 76% 29.97 in 10.0 mi NW 5.8 mph - N/A   Scattered Clouds
7:55 PM 48.2 °F - 42.8 °F 82% 29.98 in 10.0 mi NNW 4.6 mph - N/A   Scattered Clouds
8:15 PM 46.4 °F 42.9 °F 41.0 °F 81% 29.98 in 10.0 mi North 6.9 mph - N/A   Scattered Clouds
8:35 PM 44.6 °F 42.2 °F 41.0 °F 87% 29.99 in 10.0 mi North 4.6 mph - N/A   Mostly Cloudy
8:55 PM 44.6 °F 42.2 °F 41.0 °F 87% 29.99 in 10.0 mi North 4.6 mph - N/A   Overcast
9:15 PM 44.6 °F - 41.0 °F 87% 29.99 in 10.0 mi Calm Calm - N/A   Overcast
9:35 PM 44.6 °F - 41.0 °F 87% 30.00 in 10.0 mi Calm Calm - N/A   Overcast
9:55 PM 44.6 °F - 41.0 °F 87% 30.01 in 10.0 mi Calm Calm - N/A   Overcast
10:15 PM 44.6 °F 43.1 °F 41.0 °F 87% 30.01 in 10.0 mi NNE 3.5 mph - N/A   Overcast
10:35 PM 42.8 °F 41.1 °F 41.0 °F 93% 30.00 in 10.0 mi NE 3.5 mph - N/A   Overcast
10:55 PM 42.8 °F - 41.0 °F 93% 30.00 in 10.0 mi Calm Calm - N/A   Overcast
11:15 PM 42.8 °F - 39.2 °F 87% 30.00 in 10.0 mi Calm Calm - N/A   Overcast
11:35 PM 42.8 °F - 39.2 °F 87% 29.99 in 10.0 mi Calm Calm - N/A   Overcast
11:55 PM 42.8 °F - 39.2 °F 87% 29.99 in 10.0 mi Calm Calm - N/A   Overcast